Tracking 29892 objects as of 21-Nov-2024
HD Live streaming from Space Station
objects crossing your sky now

SL-3 R/B

Track SL-3 R/B now!
10-day predictions


NORAD ID: 8520
Int'l Code: 1975-124B
Perigee: 849.8 km
Apogee: 888.1 km
Inclination: 81.3 °
Period: 102.2 minutes
Semi major axis: 7239 km
RCS: 6.8584 m2 (large)
Launch date: December 25, 1975
Source: Commonwealth of Independent States (former USSR) (CIS)
Launch site: PLESETSK MISSILE AND SPACE COMPLEX (PKMTR)

Note: This is a ROCKET BODY
Your satellite tracking list
Your tracking list is empty




NASA's NSSDC Master Catalog

Two Line Element Set (TLE):
1 08520U 75124B   24325.58251837  .00000156  00000-0  82278-4 0  9992
2 08520  81.2894  64.5631 0026454 232.8463 127.0291 14.09295897513008
Source of the keplerian elements: AFSPC